Home > Weather > Inglewood > Past weeks

Flag for USA Past Weather in Inglewood, California, USA — Yesterday and Last 2 Weeks

Now
71 °F

Sunny.


Feels Like: 74 °F
Forecast: 65 / 83 °F
Wind: 7 mph from West

Location: Hawthorne Municipal Airport

Current Time: Aug 28, 2016 at 8:58:12 PM

Latest Report: Aug 28, 2016 at 7:53 PM


Visibility: 10 mi

Pressure: 29.93 "Hg

Humidity: 71%

Dew Point: 61 °F

Location of InglewoodLocation

Past Weather in Inglewood — Graph

°F

Inglewood Temperature Yesterday

Maximum temperature yesterday: 75 °F (at 12:53 PM)
Minimum temperature yesterday: 67 °F (at 12:53 AM)
Average temperature yesterday: 70 °F

High & Low Weather Summary for the Past Weeks

 TemperatureHumidityPressure
High81 °F (Aug 15, 11:53 AM)97% (Aug 15, 3:53 AM)30.04 "Hg (Aug 15, 3:53 AM)
Low61 °F (Aug 17, 3:53 AM)27% (Aug 18, 1:53 AM)29.80 "Hg (Aug 16, 5:53 PM)
Average70 °F73%29.91 "Hg
* Reported Aug 13 7:53 PM — Aug 28 7:53 PM, Inglewood, Weather by CustomWeather, © 2016

Note: Actual official high and low records may vary slightly from our data, if they occured in-between our weather recording intervals... More about our weather records

Advertising

Inglewood Weather History for the Previous 24 Hours

Scroll right to see more
 ConditionsComfort  
Time TempWeatherWind HumidityBarometerVisibility
7:53 PM
Sun, Aug 28
71 °FSunny.7 mph71%29.93 "Hg10 mi
6:53 PM73 °FSunny.13 mph66%29.92 "Hg10 mi
5:53 PM75 °FSunny.13 mph62%29.93 "Hg10 mi
4:53 PM76 °FSunny.15 mph60%29.93 "Hg10 mi
3:53 PM76 °FSunny.13 mph62%29.95 "Hg10 mi
2:53 PM78 °FSunny.14 mph56%29.96 "Hg10 mi
1:53 PM77 °FSunny.9 mph60%29.98 "Hg10 mi
12:53 PM77 °FSunny.12 mph62%29.99 "Hg10 mi
11:53 AM75 °FSunny.8 mph66%30.01 "Hg10 mi
10:53 AM75 °FSunny.6 mph66%30.02 "Hg10 mi
9:53 AM73 °FSunny.6 mph71%30.02 "Hg10 mi
8:53 AM69 °FSunny.3 mph79%30.02 "Hg10 mi
7:53 AM68 °FSunny.No wind82%30.01 "Hg10 mi
6:53 AM66 °FClear.No wind84%30.01 "Hg10 mi
5:53 AM65 °FClear.No wind87%29.99 "Hg10 mi
4:53 AM66 °FClear.No wind84%29.99 "Hg10 mi
3:53 AM66 °FClear.No wind84%29.98 "Hg10 mi
2:53 AM67 °FClear.3 mph85%29.98 "Hg10 mi
1:53 AM67 °FClear.5 mph81%29.98 "Hg10 mi
12:53 AM67 °FClear.3 mph81%30.00 "Hg10 mi
11:53 PM
Sat, Aug 27
67 °FClear.5 mph81%29.99 "Hg10 mi
10:53 PM67 °FClear.6 mph85%29.98 "Hg10 mi
9:53 PM67 °FClear.7 mph85%29.98 "Hg10 mi
8:53 PM68 °FClear.6 mph78%29.96 "Hg10 mi
Weather by CustomWeather, © 2016

See weather overviewHow to use our weather pages